Regional Weather Roundup
Issued by NWS

Home | Current Version | Previous Version | Text Only | Print | Product List | Glossary On
Versions: 1 2 3 4 5 6 7 8 9 10 11 12 13 14 15 16 17 18 19 20 21 22 23 24 25 26 27 28 29 30 31 32 33 34 35 36 37 38 39 40 41 42 43 44 45 46 47 48 49 50
000
ASUS45 KPSR 230710
RWRAZ

ARIZONA REGIONAL HOURLY WEATHER ROUNDUP
NATIONAL WEATHER SERVICE PHOENIX AZ
1200 AM MST WED JUL 23 2014

NOTE: FAIR INDICATES FEW OR NO CLOUDS BELOW 12,000 FEET WITH NO
SIGNIFICANT WEATHER AND/OR OBSTRUCTIONS TO VISIBILITY.

AZZ001>003-036-230800-
NORTHWEST ARIZONA

CITY           SKY/WX    TMP DP  RH WIND       PRES   REMARKS
BULLHEAD CITY  CLEAR     95  28   9 CALM      29.86R
KINGMAN        CLEAR     76  32  20 SE8       30.10R
$$

AZZ004>008-015-016-018-230800-
NORTH CENTRAL ARIZONA

CITY           SKY/WX    TMP DP  RH WIND       PRES   REMARKS
GRAND CANYON   PTCLDY    63  42  46 CALM      30.38R
WILLIAMS       CLEAR     63  41  45 SE6       30.45R
PRESCOTT       CLEAR     75  43  31 S6        30.25R
FLAGSTAFF      PTCLDY    61  39  44 CALM      30.42S
PAYSON         PTCLDY    79  46  31 E5        30.28F
PAGE           MOCLDY    90  34  13 CALM      30.13R
$$

AZZ009>014-017-230800-
NORTHEAST ARIZONA

CITY           SKY/WX    TMP DP  RH WIND       PRES   REMARKS
WINSLOW        PTCLDY    80  46  30 S10       30.23S
SAINT JOHNS    CLOUDY    77  50  38 S14       30.32S
WINDOW ROCK    PTCLDY    72  47  40 S8        30.45R
SHOW LOW       CLOUDY    73  45  35 SE17      30.40S
$$

AZZ023-230800-
GREATER PHOENIX AREA

CITY           SKY/WX    TMP DP  RH WIND       PRES   REMARKS
PHOENIX        PTCLDY   101  48  16 W9        29.86S
BUCKEYE          N/A     90  48  24 W3        29.87S
LUKE AFB       NOT AVBL
DEER VALLEY    PTCLDY    95  47  19 CALM      29.89R
SCOTTSDALE     PTCLDY    97  49  19 CALM      29.91S
MESA-GATEWAY   CLOUDY    95  43  16 CALM      29.92S
$$

AZZ027-028-230800-
SOUTHWEST MARICOPA COUNTY AND PINAL COUNTY

CITY           SKY/WX    TMP DP  RH WIND       PRES   REMARKS
CASA GRANDE    CLOUDY    99  48  18 W8        29.91F
$$

AZZ503-504-507>509-230800-
SOUTHEAST ARIZONA

CITY           SKY/WX    TMP DP  RH WIND       PRES   REMARKS
TUCSON         CLOUDY    98  47  17 SE15G22   30.04R
DAVIS-MONTHAN  MOCLDY    95  53  24 E16       30.03R
NOGALES        CLOUDY    84  55  36 N5        30.15S
SIERRA VISTA   PTCLDY    73  63  68 SE13      30.27F
DOUGLAS        CLOUDY    76  60  57 E20       30.26S
SAFFORD        MOCLDY    86  58  38 S14       30.16S
$$

AZZ020-021-025-026-031-230800-
SOUTHWEST ARIZONA

CITY           SKY/WX    TMP DP  RH WIND       PRES   REMARKS
YUMA           NOT AVBL
$$

CAZ031-033-041-043-047-048-061-230800-
SOUTHERN CALIFORNIA

CITY           SKY/WX    TMP DP  RH WIND       PRES   REMARKS
DOWNTOWN L.A.  CLEAR     71  59  65 CALM      30.00S
L.A. AIRPORT   CLEAR     69  61  75 W7        30.01R
SAN DIEGO      PTCLDY    71  63  75 N5        30.03S
BURBANK        CLEAR     74  51  44 CALM      30.02R
ONTARIO        CLEAR     73  52  47 CALM      30.03R
RIVERSIDE      CLEAR     73  51  46 CALM      30.03R
PALM SPRINGS   CLEAR     94  46  19 W7G17     29.88S
EL CENTRO NAS  CLEAR     86  46  24 W9        29.83R
IMPERIAL       CLEAR     88  47  24 W9        29.81S
BLYTHE         CLEAR     99  31   9 NW7       29.83R
NEEDLES        CLEAR     97  25   7 W7        29.86S
$$

NVZ020-UTZ003-230800-
SOUTHERN NEVADA-UTAH

CITY           SKY/WX    TMP DP  RH WIND       PRES   REMARKS
LAS VEGAS      CLEAR     92  26   9 S10       29.92S
SALT LAKE CITY PTCLDY    78  37  22 SE10      30.08S
$$

NMZ009-TXZ055-230800-
NEW MEXICO-WEST TEXAS

CITY           SKY/WX    TMP DP  RH WIND       PRES   REMARKS
ALBUQUERQUE    MOCLDY    75  56  51 NE5       30.34R
EL PASO        LGT RAIN  74  69  85 S8        30.21F
$$


........................KEY........................
SKY/WX - SKY CONDITION/WEATHER
TMP    - TEMPERATURE IN FAHRENHEIT
DP     - DEW POINT IN FAHRENHEIT
RH     - RELATIVE HUMIDITY IN PERCENT
WIND   - DIRECTION AND SPEED IN MILES PER HOUR (MPH)
VRB    - VARIABLE WIND DIRECTION
PRES   - MEAN SEA LEVEL PRESSURE IN INCHES OF MERCURY
         F - FALLING PRESSURE   R - RISING PRESSURE
         S - STEADY PRESSURE
VSB    - VISIBILITY IN MILES
HX     - HEAT INDEX IN FAHRENHEIT
WCI    - WIND CHILL INDEX IN FAHRENHEIT
TC     - TEMPERATURE IN CELSIUS WHICH IS ALSO KNOWN AS
         TEMPERATURE IN CENTIGRADE
AFB    - AIR FORCE BASE
         LUKE AFB IS LUKE AIR FORCE BASE
         DAVIS-MONTHAN IS DAVIS-MONTHAN AIR FORCE BASE
NAS    - NAVAL AIR STATION
         EL CENTRO NAS IS EL CENTRO NAVAL AIR STATION
N/A    - NOT AVAILABLE



USA.gov is the U.S. government's official web portal to all federal, state and local government web resources and services.